Overview Statistics Trail Chart Weather Telemetry Raw packets
 

This is the latest recevied weather packets stored in our database for station/object F1ZTH-10. If no packets are shown the sender has not sent any weather packets the latest 10 day(s).

<< 32 33 34 35 36 37 38 >>
Time Temp. Humidity Pressure Rain* Wind** Luminosity Snow
1787941273 26.67° C 50% 976 hPa - - - -
1787940373 30° C 46% 976 hPa - - - -
1787939473 30° C 46% 976 hPa - - - -
1787938573 31.11° C 44% 976 hPa - - - -
1787937673 31.67° C 44% 976 hPa - - - -
1787936773 31.67° C 43% 976 hPa - - - -
1787935873 31.67° C 44% 976 hPa - - - -
1787934973 31.11° C 47% 976 hPa - - - -
1787934073 30° C 50% 976 hPa - - - -
1787933173 30° C 49% 976 hPa - - - -
1787932273 30.56° C 48% 976 hPa - - - -
1787931373 30° C 50% 976 hPa - - - -
1787930473 28.33° C 53% 976 hPa - - - -
1787929573 28.89° C 52% 976 hPa - - - -
1787928673 28.89° C 53% 976 hPa - - - -
1787927773 28.89° C 54% 976 hPa - - - -
1787926873 29.44° C 55% 976 hPa - - - -
1787925972 28.89° C 58% 976 hPa - - - -
1787925072 27.22° C 67% 976 hPa - - - -
1787924172 25.56° C 84% 976 hPa - - - -
1787923272 25.56° C 88% 976 hPa - - - -
1787922372 25° C 89% 976 hPa - - - -
1787921472 24.44° C 95% 976 hPa - - - -
1787920572 24.44° C 96% 976 hPa - - - -
1787919672 23.89° C 96% 976 hPa - - - -

* Rain since midnight (hover to see other rain measurements)
** Current wind speed in m/s (hover to see current wind gust speed)